When you browse on this site, cookies collect data to enhance your experience and personalize the content and advertising you see.
Visit our Privacy Policy to learn more. By continuing to use the site, you agree to this use of cookies and data.
  • In United Kingdom
  • List of Countries
  • For 7 days
  • Water Temperature
  • Weather Map
  • Weather Widgets
  • user-avatar
    Login

    Hourly Weather Lubango

    Today, 4 June, Thursday

    Time Temperature Precipitation Wind Pressure Humidity
    00:00 +14°C° 0 mm 1 mps 608 mmHg 52%
    01:00 +13°C° 0 mm 1 mps 608 mmHg 53%
    02:00 +13°C° 0 mm 1 mps 608 mmHg 52%
    03:00 +13°C° 0 mm 1 mps 608 mmHg 51%
    04:00 +13°C° 0 mm 1 mps 607 mmHg 50%
    05:00 +13°C° 0 mm 1 mps 608 mmHg 51%
    06:00 +13°C° 0 mm 1 mps 608 mmHg 51%
    07:00 +14°C° 0 mm 1 mps 609 mmHg 51%
    08:00 +18°C° 0 mm 1 mps 610 mmHg 44%
    09:00 +20°C° 0 mm 1 mps 611 mmHg 37%
    10:00 +23°C° 0 mm 1 mps 612 mmHg 30%
    11:00 +24°C° 0 mm 2 mps 612 mmHg 28%
    12:00 +25°C° 0 mm 2 mps 612 mmHg 25%
    13:00 +26°C° 0 mm 2 mps 612 mmHg 23%
    14:00 +25°C° 0 mm 3 mps 611 mmHg 23%
    15:00 +25°C° 0 mm 3 mps 611 mmHg 22%
    16:00 +25°C° 0 mm 3 mps 610 mmHg 22%
    17:00 +21°C° 0 mm 2 mps 610 mmHg 30%
    18:00 +18°C° 0 mm 2 mps 609 mmHg 38%
    19:00 +15°C° 0 mm 1 mps 609 mmHg 46%
    20:00 +14°C° 0 mm 1 mps 609 mmHg 49%
    21:00 +14°C° 0 mm 1 mps 609 mmHg 51%
    22:00 +14°C° 0 mm 1 mps 609 mmHg 54%
    23:00 +13°C° 0 mm 1 mps 609 mmHg 52%

    Tomorrow, 5 June, Friday

    Time Temperature Precipitation Wind Pressure Humidity
    00:00 +13°C° 0 mm 1 mps 609 mmHg 50%
    01:00 +13°C° 0 mm 1 mps 609 mmHg 48%
    02:00 +13°C° 0 mm 1 mps 608 mmHg 47%
    03:00 +13°C° 0 mm 1 mps 608 mmHg 46%
    04:00 +13°C° 0 mm 1 mps 608 mmHg 44%
    05:00 +13°C° 0 mm 1 mps 609 mmHg 44%
    06:00 +13°C° 0 mm 1 mps 609 mmHg 45%
    07:00 +13°C° 0 mm 1 mps 609 mmHg 45%
    08:00 +16°C° 0 mm 1 mps 610 mmHg 39%
    09:00 +20°C° 0 mm 1 mps 612 mmHg 34%
    10:00 +24°C° 0 mm 1 mps 613 mmHg 28%
    11:00 +24°C° 0 mm 2 mps 613 mmHg 25%
    12:00 +25°C° 0 mm 2 mps 612 mmHg 23%
    13:00 +26°C° 0 mm 2 mps 612 mmHg 20%
    14:00 +26°C° 0 mm 2 mps 612 mmHg 21%
    15:00 +26°C° 0 mm 2 mps 611 mmHg 21%
    16:00 +25°C° 0 mm 2 mps 611 mmHg 22%
    17:00 +21°C° 0 mm 2 mps 610 mmHg 28%
    18:00 +20°C° 0 mm 1 mps 609 mmHg 33%
    19:00 +16°C° 0 mm 1 mps 609 mmHg 39%
    20:00 +15°C° 0 mm 1 mps 609 mmHg 42%
    21:00 +15°C° 0 mm 1 mps 609 mmHg 45%
    22:00 +15°C° 0 mm 1 mps 609 mmHg 48%
    23:00 +14°C° 0 mm 1 mps 609 mmHg 48%

    Day after tomorrow, 6 June, Saturday

    Time Temperature Precipitation Wind Pressure Humidity
    00:00 +14°C° 0 mm 1 mps 609 mmHg 47%
    01:00 +14°C° 0 mm 1 mps 609 mmHg 47%
    02:00 +14°C° 0 mm 1 mps 609 mmHg 46%
    03:00 +14°C° 0 mm 1 mps 609 mmHg 45%
    04:00 +14°C° 0 mm 1 mps 608 mmHg 45%
    05:00 +14°C° 0 mm 1 mps 609 mmHg 46%
    06:00 +14°C° 0 mm 1 mps 609 mmHg 47%
    07:00 +14°C° 0 mm 1 mps 609 mmHg 48%
    08:00 +17°C° 0 mm 2 mps 610 mmHg 41%
    09:00 +20°C° 0 mm 2 mps 612 mmHg 34%
    10:00 +24°C° 0 mm 2 mps 613 mmHg 27%
    11:00 +25°C° 0 mm 2 mps 613 mmHg 25%
    12:00 +26°C° 0 mm 2 mps 613 mmHg 23%
    13:00 +27°C° 0 mm 2 mps 612 mmHg 21%
    14:00 +27°C° 0 mm 2 mps 612 mmHg 21%
    15:00 +26°C° 0 mm 2 mps 611 mmHg 21%
    16:00 +26°C° 0 mm 2 mps 611 mmHg 21%
    17:00 +23°C° 0 mm 2 mps 610 mmHg 29%
    18:00 +20°C° 0 mm 1 mps 609 mmHg 36%
    19:00 +16°C° 0 mm 1 mps 609 mmHg 43%
    20:00 +15°C° 0 mm 1 mps 609 mmHg 44%
    21:00 +15°C° 0 mm 1 mps 609 mmHg 45%
    22:00 +15°C° 0 mm 1 mps 609 mmHg 47%
    23:00 +14°C° 0 mm 1 mps 609 mmHg 47%

    7 June, Sunday

    Time Temperature Precipitation Wind Pressure Humidity
    00:00 +14°C° 0 mm 1 mps 609 mmHg 48%
    01:00 +14°C° 0 mm 1 mps 609 mmHg 48%
    02:00 +14°C° 0 mm 1 mps 609 mmHg 48%
    03:00 +14°C° 0 mm 2 mps 609 mmHg 48%
    04:00 +13°C° 0 mm 2 mps 608 mmHg 48%
    05:00 +13°C° 0 mm 2 mps 609 mmHg 47%
    06:00 +13°C° 0 mm 2 mps 609 mmHg 45%
    07:00 +13°C° 0 mm 2 mps 609 mmHg 44%
    08:00 +16°C° 0 mm 3 mps 610 mmHg 37%
    09:00 +19°C° 0 mm 3 mps 611 mmHg 31%
    10:00 +22°C° 0 mm 4 mps 612 mmHg 25%
    11:00 +24°C° 0 mm 3 mps 612 mmHg 23%
    12:00 +25°C° 0 mm 3 mps 612 mmHg 22%
    13:00 +27°C° 0 mm 2 mps 612 mmHg 20%
    14:00 +26°C° 0 mm 2 mps 611 mmHg 20%
    15:00 +26°C° 0 mm 2 mps 611 mmHg 20%
    16:00 +26°C° 0 mm 1 mps 611 mmHg 20%
    17:00 +23°C° 0 mm 1 mps 610 mmHg 26%
    18:00 +20°C° 0 mm 1 mps 609 mmHg 32%
    19:00 +16°C° 0 mm 1 mps 608 mmHg 38%
    20:00 +15°C° 0 mm 1 mps 608 mmHg 37%
    21:00 +15°C° 0 mm 1 mps 608 mmHg 37%
    22:00 +15°C° 0 mm 1 mps 609 mmHg 37%
    23:00 +14°C° 0 mm 1 mps 608 mmHg 37%

    8 June, Monday

    Time Temperature Precipitation Wind Pressure Humidity
    00:00 +14°C° 0 mm 1 mps 608 mmHg 37%
    01:00 +14°C° 0 mm 1 mps 608 mmHg 38%
    02:00 +13°C° 0 mm 2 mps 608 mmHg 37%
    03:00 +13°C° 0 mm 2 mps 608 mmHg 37%
    04:00 +13°C° 0 mm 2 mps 607 mmHg 37%
    05:00 +13°C° 0 mm 2 mps 608 mmHg 37%
    06:00 +13°C° 0 mm 2 mps 608 mmHg 37%
    07:00 +13°C° 0 mm 2 mps 608 mmHg 37%
    08:00 +16°C° 0 mm 2 mps 609 mmHg 32%
    09:00 +19°C° 0 mm 2 mps 610 mmHg 28%
    10:00 +22°C° 0 mm 3 mps 611 mmHg 23%
    11:00 +24°C° 0 mm 2 mps 611 mmHg 22%
    12:00 +25°C° 0 mm 2 mps 611 mmHg 21%
    13:00 +27°C° 0 mm 2 mps 611 mmHg 19%
    14:00 +26°C° 0 mm 2 mps 611 mmHg 20%
    15:00 +26°C° 0 mm 2 mps 610 mmHg 20%
    16:00 +25°C° 0 mm 2 mps 610 mmHg 21%
    17:00 +21°C° 0 mm 2 mps 609 mmHg 30%
    18:00 +18°C° 0 mm 2 mps 608 mmHg 39%
    19:00 +15°C° 0 mm 2 mps 608 mmHg 48%
    20:00 +15°C° 0 mm 1 mps 608 mmHg 48%
    21:00 +14°C° 0 mm 1 mps 608 mmHg 49%
    22:00 +14°C° 0 mm 1 mps 608 mmHg 50%
    23:00 +14°C° 0 mm 1 mps 608 mmHg 49%

    9 June, Tuesday

    Time Temperature Precipitation Wind Pressure Humidity
    00:00 +14°C° 0 mm 1 mps 608 mmHg 48%
    01:00 +13°C° 0 mm 1 mps 608 mmHg 48%
    02:00 +13°C° 0 mm 1 mps 608 mmHg 47%
    03:00 +13°C° 0 mm 1 mps 608 mmHg 46%
    04:00 +13°C° 0 mm 1 mps 607 mmHg 45%
    05:00 +13°C° 0 mm 1 mps 608 mmHg 45%
    06:00 +13°C° 0 mm 1 mps 608 mmHg 45%
    07:00 +13°C° 0 mm 1 mps 608 mmHg 45%
    08:00 +16°C° 0 mm 1 mps 609 mmHg 39%
    09:00 +20°C° 0 mm 1 mps 610 mmHg 33%
    10:00 +23°C° 0 mm 1 mps 611 mmHg 26%
    11:00 +24°C° 0 mm 1 mps 611 mmHg 25%
    12:00 +25°C° 0 mm 1 mps 611 mmHg 24%
    13:00 +26°C° 0 mm 1 mps 611 mmHg 22%
    14:00 +26°C° 0 mm 2 mps 610 mmHg 23%
    15:00 +25°C° 0 mm 2 mps 610 mmHg 25%
    16:00 +24°C° 0 mm 2 mps 610 mmHg 26%
    17:00 +20°C° 0 mm 2 mps 609 mmHg 33%
    18:00 +17°C° 0 mm 2 mps 608 mmHg 41%
    19:00 +15°C° 0 mm 2 mps 607 mmHg 49%
    20:00 +14°C° 0 mm 2 mps 608 mmHg 49%
    21:00 +14°C° 0 mm 2 mps 608 mmHg 49%
    22:00 +13°C° 0 mm 1 mps 608 mmHg 49%
    23:00 +13°C° 0 mm 1 mps 608 mmHg 47%
    Show more